Location: Gälforsberget
(66.6500°N, 22.4167°E)
Time: 06:07:03
(UTC+00:00)

DNEPR-1 R/B - Pass Details

Date: 11 April 2026
Orbit: 582 x 1331 km, 64.6° (Epoch: 10 May)

Event Time Altitude Azimuth Distance (km) Brightness Sun altitude
Exits shadow 21:46:00 13° 215° (SW) 1,729 5.4 -14.3°
Maximum altitude 21:49:30 42° 147° (SSE) 910 4.0 -14.4°
Drops below altitude 10° 21:54:01 10° 77° (ENE) 2,167 6.4 -14.5°
Sets 21:56:38 0° 71° (ENE) 3,193 7.3 -14.5°
